Location: Unspecified
(42.3650°N, 71.1030°W)
Time: 15:58:24
(UTC+00:00)

Tiros 1 - Pass Details

Date: 27 June 2024
Orbit: 624 x 656 km, 48.4° (Epoch: 13 July)

Event Time Altitude Azimuth Distance (km) Brightness Sun altitude
Rises 03:49:21 0° 253° (WSW) 2,895 10.5 -23.0°
Reaches altitude 10° 03:51:41 10° 256° (WSW) 1,990 9.6 -23.1°
Maximum altitude 03:56:13 64° 339° (NNW) 691 7.4 -23.3°
Drops below altitude 10° 04:00:48 10° 61° (ENE) 2,003 9.9 -23.4°
Sets 04:03:09 0° 64° (ENE) 2,915 10.7 -23.5°
